Back to catalog

STARLINK-2701

AliveCommunicationsVLEO
NORAD 48656·PAYLOAD·🇺🇸 United States

Launched May 26, 2021 from Cape Canaveral Space Force Station

Loading…

Next Passes (next 24 hours)

TLE

FreshSource: CelesTrak SupGP

Epoch: Sep 14, 2026, 20:58 UTC

1 48656C 21044U   26257.87409722 -.00016187  00000+0 -52051-3 0  2578
2 48656  53.1585 313.4189 0001309  80.6333 311.4815 15.31711042    12

Track STARLINK-2701 in real time with AllMySat

Download on the App Store